Flag for United Kingdom Weather past 2 weeks in Huddersfield, England, United Kingdom

Now
55 °F

Passing clouds.


Feels Like: 53 °F
Forecast: 52 / 62 °F
Wind: 10 mph from Southeast

Location: Leeds And Bradford

Current Time: Aug 28, 2014 at 4:39:38 AM

Latest Report: Aug 28, 2014 at 3:50 AM


Visibility: 3 mi

Pressure: 29.77 "Hg

Humidity: 100%

Dew point: 55 °F

Location of HuddersfieldLocation

Historic Weather in Huddersfield — Graph

°F

Huddersfield temperature yesterday

Maximum temperature yesterday: 61 °F (at 2:20 PM)
Minimum temperature yesterday: 50 °F (at 12:20 AM)
Average temperature yesterday: 55 °F

Past Weeks' High & Low Weather Summary

 TemperatureHumidityPressure
High64 °F (Aug 14, 2:50 PM)100% (Aug 13, 7:20 AM)30.09 "Hg (Aug 13, 7:20 AM)
Low43 °F (Aug 20, 4:50 AM)42% (Aug 24, 4:20 PM)29.50 "Hg (Aug 13, 3:20 AM)
Average53 °F82%29.85 "Hg
* Reported Aug 13 3:20 AM — Aug 28 3:20 AM, Huddersfield, Weather by CustomWeather, © 2014

Note: Actual official high and low records may vary slightly from our data, if they occured in-between our weather recording intervals... More about our weather records

Advertising

Huddersfield weather history for previous 24 hours

 ConditionsComfort  
Time TempWeatherWind HumidityBarometerVisibility
3:20 AM
Aug 28
55 °FDrizzle. Low clouds.13 mph94%29.77 "HgN/A
2:20 AM55 °FPassing clouds.14 mph94%29.80 "HgN/A
1:50 AM55 °FPassing clouds.14 mph88%29.80 "HgN/A
1:20 AM55 °FPassing clouds.14 mph82%29.80 "HgN/A
12:50 AM57 °FPassing clouds.12 mph77%29.83 "HgN/A
12:20 AM57 °FPassing clouds.14 mph77%29.83 "HgN/A
11:50 PM
Aug 27
57 °FPassing clouds.14 mph82%29.83 "HgN/A
11:20 PM57 °FPassing clouds.13 mph82%29.83 "HgN/A
10:50 PM57 °FPassing clouds.14 mph82%29.86 "HgN/A
10:20 PM55 °FPassing clouds.13 mph94%29.86 "HgN/A
9:50 PM55 °FPassing clouds.12 mph94%29.86 "HgN/A
9:20 PM55 °FPassing clouds.12 mph94%29.86 "HgN/A
8:50 PM55 °FScattered clouds.14 mph94%29.86 "HgN/A
8:20 PM55 °FScattered clouds.15 mph94%29.89 "HgN/A
7:50 PM57 °FScattered clouds.16 mph82%29.89 "HgN/A
7:20 PM57 °FScattered clouds.14 mph82%29.89 "HgN/A
6:50 PM57 °FPassing clouds.14 mph77%29.89 "HgN/A
6:20 PM59 °FPassing clouds.14 mph77%29.89 "HgN/A
5:20 PM61 °FPassing clouds.16 mph68%29.92 "HgN/A
4:50 PM61 °FScattered clouds.15 mph68%29.92 "HgN/A
3:50 PM61 °FScattered clouds.15 mph63%29.95 "HgN/A
3:20 PM61 °FScattered clouds.14 mph63%29.95 "HgN/A
2:50 PM61 °FScattered clouds.13 mph68%29.98 "HgN/A
2:20 PM61 °FPartly sunny.12 mph68%29.98 "HgN/A
1:50 PM59 °FPartly sunny.12 mph68%29.98 "HgN/A
1:20 PM57 °FScattered clouds.12 mph72%30.01 "HgN/A
12:50 PM59 °FScattered clouds.10 mph68%30.01 "HgN/A
12:20 PM57 °FScattered clouds.10 mph72%30.01 "HgN/A
11:20 AM57 °FScattered clouds.10 mph72%30.04 "HgN/A
10:50 AM57 °FScattered clouds.7 mph72%30.04 "HgN/A
10:20 AM57 °FScattered clouds.8 mph72%30.04 "HgN/A
9:50 AM55 °FPartly sunny.7 mph77%30.04 "HgN/A
9:20 AM54 °FPartly sunny.7 mph82%30.04 "HgN/A
8:50 AM52 °FPartly sunny.5 mph88%30.04 "HgN/A
8:20 AM50 °FPartly sunny.6 mph88%30.04 "HgN/A
7:50 AM50 °FPartly sunny.5 mph88%30.04 "HgN/A
7:20 AM50 °FPartly sunny.6 mph88%30.04 "HgN/A
6:50 AM50 °FPassing clouds.5 mph88%30.04 "HgN/A
6:20 AM50 °FPassing clouds.5 mph88%30.01 "HgN/A
5:50 AM50 °FPassing clouds.3 mph94%30.01 "HgN/A
5:20 AM50 °FPassing clouds.5 mph94%30.01 "HgN/A
4:50 AM50 °FPassing clouds.5 mph94%30.01 "HgN/A
4:20 AM50 °FPassing clouds.6 mph94%30.01 "HgN/A
Weather by CustomWeather, © 2014

See weather overviewHow to use our weather pages